Timestamp, Local Timestamp, ID, PM25, PM10, Co2, Temperature, Relative Humidity, Monitor ID, O3
2021-03-03T20:37:55Z,03/03/21 15:37,5342908,0.787,0.002,1257,22.4,24.8,76,14.0
2021-03-03T20:38:55Z,03/03/21 15:38,5342916,0.6559999999999999,0.004,1257,22.4,24.8,76,15.0
2021-03-03T20:39:55Z,03/03/21 15:39,5342925,0.639,0.0,1256,22.3,24.8,76,15.0
2021-03-03T20:40:55Z,03/03/21 15:40,5342932,0.706,0.002,1246,22.3,24.8,76,14.0
2021-03-03T20:41:55Z,03/03/21 15:41,5342939,0.73,0.002,1236,22.3,24.9,76,14.0
2021-03-03T20:42:55Z,03/03/21 15:42,5342947,0.6799999999999999,0.004,1244,22.3,24.9,76,15.0
2021-03-03T20:43:55Z,03/03/21 15:43,5342955,0.697,0.002,1228,22.3,24.9,76,15.0
2021-03-03T20:44:55Z,03/03/21 15:44,5342961,0.7070000000000001,0.004,1217,22.3,24.9,76,15.0
2021-03-03T20:45:55Z,03/03/21 15:45,5342969,0.6599999999999999,0.006,1213,22.2,24.9,76,15.0
2021-03-03T20:46:55Z,03/03/21 15:46,5342975,0.721,0.008,1219,22.2,24.9,76,16.0
2021-03-03T20:47:55Z,03/03/21 15:47,5342982,0.653,0.004,1213,22.2,24.9,76,15.0
2021-03-03T20:48:55Z,03/03/21 15:48,5342991,0.845,0.004,1219,22.2,24.9,76,16.0
2021-03-03T20:49:55Z,03/03/21 15:49,5342999,0.6759999999999999,0.002,1198,22.2,25.0,76,16.0
2021-03-03T20:50:55Z,03/03/21 15:50,5343007,0.6719999999999999,0.0,1223,22.2,25.0,76,17.0
2021-03-03T20:51:55Z,03/03/21 15:51,5343015,0.8470000000000001,0.008,1227,22.2,25.0,76,17.0
2021-03-03T20:52:55Z,03/03/21 15:52,5343023,0.687,0.006,1241,22.2,25.1,76,16.0
2021-03-03T20:53:55Z,03/03/21 15:53,5343029,0.818,0.004,1237,22.2,25.1,76,15.0
2021-03-03T20:54:55Z,03/03/21 15:54,5343038,0.706,0.002,1237,22.2,25.1,76,16.0
2021-03-03T20:55:55Z,03/03/21 15:55,5343046,0.73,0.002,1223,22.2,25.1,76,16.0
2021-03-03T20:56:55Z,03/03/21 15:56,5343052,0.673,0.008,1221,22.2,25.2,76,16.0
2021-03-03T20:57:55Z,03/03/21 15:57,5343061,0.86,0.004,1225,22.2,25.2,76,16.0
2021-03-03T20:58:55Z,03/03/21 15:58,5343068,0.788,0.004,1231,22.2,25.2,76,15.0
2021-03-03T20:59:55Z,03/03/21 15:59,5343074,0.8099999999999999,0.006,1231,22.1,25.2,76,16.0
2021-03-03T21:00:55Z,03/03/21 16:00,5343082,0.819,0.0,1246,22.1,25.2,76,15.0
2021-03-03T21:01:55Z,03/03/21 16:01,5343089,0.806,0.004,1236,22.1,25.2,76,16.0
2021-03-03T21:02:55Z,03/03/21 16:02,5343096,0.641,0.004,1246,22.1,25.2,76,16.0
2021-03-03T21:03:55Z,03/03/21 16:03,5343103,0.842,0.004,1240,22.1,25.2,76,16.0
2021-03-03T21:04:55Z,03/03/21 16:04,5343109,0.8099999999999999,0.0,1236,22.1,25.2,76,14.0
2021-03-03T21:05:55Z,03/03/21 16:05,5343117,0.666,0.0,1216,22.1,25.2,76,15.0
2021-03-03T21:06:55Z,03/03/21 16:06,5343124,0.774,0.006,1230,22.1,25.2,76,15.0
2021-03-03T21:07:55Z,03/03/21 16:07,5343131,0.765,0.006,1212,22.1,25.2,76,15.0
2021-03-03T21:08:55Z,03/03/21 16:08,5343138,0.751,0.002,1208,22.1,25.2,76,15.0
2021-03-03T21:09:55Z,03/03/21 16:09,5343145,0.6910000000000001,0.002,1218,22.1,25.2,76,15.0
2021-03-03T21:10:55Z,03/03/21 16:10,5343151,0.5650000000000001,0.002,1201,22.1,25.2,76,15.0
2021-03-03T21:11:55Z,03/03/21 16:11,5343158,0.583,0.002,1193,22.1,25.2,76,16.0
2021-03-03T21:12:55Z,03/03/21 16:12,5343166,0.697,0.008,1201,22.1,25.2,76,17.0
2021-03-03T21:13:55Z,03/03/21 16:13,5343175,0.655,0.008,1187,22.1,25.2,76,16.0
2021-03-03T21:14:55Z,03/03/21 16:14,5343182,0.702,0.006,1183,22.1,25.2,76,16.0
2021-03-03T21:15:55Z,03/03/21 16:15,5343188,0.705,0.0,1201,22.1,25.2,76,17.0
2021-03-03T21:16:55Z,03/03/21 16:16,5343196,0.651,0.0,1189,22.1,25.2,76,17.0
2021-03-03T21:17:55Z,03/03/21 16:17,5343203,0.7929999999999999,0.008,1181,22.1,25.2,76,16.0
2021-03-03T21:18:55Z,03/03/21 16:18,5343210,0.751,0.002,1193,22.1,25.2,76,16.0
2021-03-03T21:19:55Z,03/03/21 16:19,5343218,0.6900000000000001,0.0,1189,22.1,25.2,76,16.0
2021-03-03T21:20:55Z,03/03/21 16:20,5343226,0.557,0.004,1169,22.1,25.2,76,16.0
2021-03-03T21:21:55Z,03/03/21 16:21,5343232,0.6980000000000001,0.004,1183,22.1,25.1,76,17.0
2021-03-03T21:22:55Z,03/03/21 16:22,5343241,0.705,0.006,1167,22.1,25.1,76,17.0
2021-03-03T21:23:55Z,03/03/21 16:23,5343250,0.8109999999999999,0.008,1167,22.1,25.1,76,17.0
2021-03-03T21:24:55Z,03/03/21 16:24,5343257,0.667,0.002,1173,22.1,25.1,76,17.0
2021-03-03T21:25:55Z,03/03/21 16:25,5343264,0.76,0.008,1183,22.1,25.0,76,16.0
2021-03-03T21:26:55Z,03/03/21 16:26,5343270,0.784,0.002,1179,22.1,25.1,76,17.0
2021-03-03T21:27:55Z,03/03/21 16:27,5343278,0.643,0.002,1179,22.1,25.1,76,17.0
2021-03-03T21:28:55Z,03/03/21 16:28,5343285,0.6990000000000001,0.0,1187,22.1,25.0,76,16.0
2021-03-03T21:29:55Z,03/03/21 16:29,5343292,0.658,0.002,1181,22.1,25.1,76,17.0
2021-03-03T21:30:55Z,03/03/21 16:30,5343300,0.727,0.002,1181,22.0,25.0,76,18.0
2021-03-03T21:31:55Z,03/03/21 16:31,5343307,0.8400000000000001,0.006,1157,22.0,25.0,76,19.0
2021-03-03T21:32:55Z,03/03/21 16:32,5343316,0.759,0.006,1146,22.0,24.9,76,22.0
2021-03-03T21:33:55Z,03/03/21 16:33,5343324,0.866,0.01,1125,22.0,24.9,76,22.0
2021-03-03T21:34:55Z,03/03/21 16:34,5343332,0.6900000000000001,0.0,1128,22.0,24.9,76,21.0
2021-03-03T21:35:55Z,03/03/21 16:35,5343339,0.753,0.006,1125,22.0,24.9,76,21.0
2021-03-03T21:36:55Z,03/03/21 16:36,5343348,0.673,0.002,1126,22.0,24.8,76,21.0
2021-03-03T21:37:55Z,03/03/21 16:37,5343356,0.8630000000000001,0.004,1111,22.0,24.8,76,21.0
2021-03-03T21:38:55Z,03/03/21 16:38,5343362,0.612,0.0,1117,22.0,24.8,76,21.0
2021-03-03T21:39:55Z,03/03/21 16:39,5343370,0.682,0.002,1121,22.0,24.8,76,21.0
2021-03-03T21:40:55Z,03/03/21 16:40,5343376,0.8109999999999999,0.002,1126,22.0,24.8,76,22.0
2021-03-03T21:41:55Z,03/03/21 16:41,5343384,0.79,0.002,1111,22.0,24.8,76,21.0
2021-03-03T21:42:55Z,03/03/21 16:42,5343390,0.74,0.004,1121,22.0,24.7,76,22.0
2021-03-03T21:43:55Z,03/03/21 16:43,5343395,0.702,0.0,1124,22.0,24.7,76,22.0
2021-03-03T21:44:55Z,03/03/21 16:44,5343402,0.658,0.002,1122,22.0,24.8,76,19.0
2021-03-03T21:45:55Z,03/03/21 16:45,5343408,0.648,0.0,1132,22.0,24.8,76,21.0
2021-03-03T21:46:55Z,03/03/21 16:46,5343414,0.654,0.0,1128,22.0,24.8,76,21.0
2021-03-03T21:47:55Z,03/03/21 16:47,5343420,0.686,0.004,1132,22.0,24.8,76,21.0
2021-03-03T21:48:55Z,03/03/21 16:48,5343427,0.6950000000000001,0.004,1110,22.0,24.8,76,20.0
2021-03-03T21:49:55Z,03/03/21 16:49,5343434,0.819,0.006,1116,22.0,24.7,76,21.0
2021-03-03T21:50:55Z,03/03/21 16:50,5343440,0.647,0.004,1102,22.0,24.7,76,22.0
2021-03-03T21:51:55Z,03/03/21 16:51,5343447,0.624,0.0,1104,22.0,24.7,76,22.0
2021-03-03T21:52:55Z,03/03/21 16:52,5343454,0.7809999999999999,0.002,1112,22.0,24.7,76,22.0
2021-03-03T21:53:55Z,03/03/21 16:53,5343460,0.708,0.0,1099,22.0,24.7,76,22.0
2021-03-03T21:54:55Z,03/03/21 16:54,5343466,0.658,0.002,1106,22.0,24.7,76,22.0
2021-03-03T21:55:55Z,03/03/21 16:55,5343472,0.648,0.0,1099,22.0,24.6,76,16.0
2021-03-03T21:56:55Z,03/03/21 16:56,5343479,0.6639999999999999,0.002,1110,22.0,24.7,76,19.0
2021-03-03T21:57:55Z,03/03/21 16:57,5343486,0.6900000000000001,0.0,1124,22.0,24.7,76,18.0
2021-03-03T21:58:55Z,03/03/21 16:58,5343495,0.673,0.002,1138,22.0,24.7,76,19.0
2021-03-03T21:59:55Z,03/03/21 16:59,5343502,0.714,0.006,1144,22.0,24.8,76,19.0
2021-03-03T22:00:55Z,03/03/21 17:00,5343510,0.6910000000000001,0.002,1142,22.0,24.8,76,17.0
2021-03-03T22:01:55Z,03/03/21 17:01,5343518,0.662,0.004,1138,22.1,24.8,76,18.0
2021-03-03T22:02:55Z,03/03/21 17:02,5343525,0.751,0.002,1150,22.1,24.8,76,17.0
2021-03-03T22:03:55Z,03/03/21 17:03,5343533,0.738,0.0,1157,22.1,24.8,76,17.0
2021-03-03T22:04:55Z,03/03/21 17:04,5343540,0.738,0.006,1165,22.1,24.8,76,16.0
2021-03-03T22:05:55Z,03/03/21 17:05,5343549,0.654,0.0,1161,22.1,24.8,76,17.0
2021-03-03T22:06:55Z,03/03/21 17:06,5343557,0.5650000000000001,0.002,1165,22.1,24.9,76,16.0
2021-03-03T22:07:55Z,03/03/21 17:07,5343565,0.746,0.004,1173,22.1,24.9,76,15.0
2021-03-03T22:08:55Z,03/03/21 17:08,5343573,0.746,0.004,1189,22.1,25.0,76,15.0
2021-03-03T22:09:55Z,03/03/21 17:09,5343581,0.7070000000000001,0.004,1212,22.1,25.1,76,13.0
2021-03-03T22:10:55Z,03/03/21 17:10,5343588,0.669,0.012,1234,22.1,25.2,76,12.0
2021-03-03T22:11:55Z,03/03/21 17:11,5343595,0.7849999999999999,0.004,1230,22.1,25.1,76,14.0
2021-03-03T22:12:55Z,03/03/21 17:12,5343602,0.784,0.002,1208,22.1,25.1,76,14.0
2021-03-03T22:13:55Z,03/03/21 17:13,5343610,0.743,0.004,1191,22.1,25.0,76,14.0
2021-03-03T22:14:55Z,03/03/21 17:14,5343617,0.658,0.002,1191,22.1,25.0,76,14.0
2021-03-03T22:15:55Z,03/03/21 17:15,5343625,0.721,0.002,1189,22.1,25.0,76,14.0
2021-03-03T22:16:55Z,03/03/21 17:16,5343634,0.6990000000000001,0.006,1197,22.1,25.0,76,13.0
2021-03-03T22:17:55Z,03/03/21 17:17,5343641,0.751,0.002,1214,22.1,25.1,76,12.0
2021-03-03T22:18:55Z,03/03/21 17:18,5343648,0.85,0.002,1232,22.1,25.2,76,11.0
2021-03-03T22:19:55Z,03/03/21 17:19,5343658,0.8119999999999999,0.004,1236,22.1,25.2,76,11.0
2021-03-03T22:20:55Z,03/03/21 17:20,5343666,0.968,0.004,1240,22.1,25.2,76,11.0
2021-03-03T22:21:55Z,03/03/21 17:21,5343672,0.77,0.004,1264,22.1,25.2,76,10.0
2021-03-03T22:22:55Z,03/03/21 17:22,5343679,0.714,0.0,1260,22.1,25.2,76,11.0
2021-03-03T22:23:55Z,03/03/21 17:23,5343687,0.893,0.004,1264,22.1,25.2,76,9.0
2021-03-03T22:24:55Z,03/03/21 17:24,5343694,0.897,0.006,1265,22.1,25.2,76,10.0
2021-03-03T22:25:55Z,03/03/21 17:25,5343700,0.8220000000000001,0.006,1265,22.1,25.2,76,11.0
2021-03-03T22:26:55Z,03/03/21 17:26,5343708,0.736,0.002,1277,22.1,25.2,76,10.0
2021-03-03T22:27:55Z,03/03/21 17:27,5343715,0.728,0.004,1265,22.2,25.2,76,9.0
2021-03-03T22:28:55Z,03/03/21 17:28,5343723,0.817,0.002,1271,22.1,25.2,76,10.0
2021-03-03T22:29:55Z,03/03/21 17:29,5343729,0.8099999999999999,0.0,1265,22.1,25.2,76,10.0
2021-03-03T22:30:55Z,03/03/21 17:30,5343735,0.795,0.006,1271,22.1,25.3,76,10.0
2021-03-03T22:31:55Z,03/03/21 17:31,5343744,0.763,0.002,1273,22.1,25.3,76,11.0
2021-03-03T22:32:55Z,03/03/21 17:32,5343751,0.8779999999999999,0.004,1283,22.1,25.3,76,11.0
2021-03-03T22:33:55Z,03/03/21 17:33,5343760,0.9789999999999999,0.002,1287,22.1,25.3,76,11.0
2021-03-03T22:34:55Z,03/03/21 17:34,5343767,0.791,0.004,1287,22.1,25.3,76,11.0
2021-03-03T22:35:55Z,03/03/21 17:35,5343774,0.9109999999999999,0.004,1287,22.1,25.3,76,10.0
2021-03-03T22:36:55Z,03/03/21 17:36,5343782,0.9179999999999999,0.0,1287,22.1,25.3,76,10.0
2021-03-03T22:37:55Z,03/03/21 17:37,5343788,0.8240000000000001,0.004,1293,22.1,25.3,76,10.0
2021-03-03T22:38:55Z,03/03/21 17:38,5343795,0.865,0.002,1280,22.1,25.3,76,11.0
2021-03-03T22:39:55Z,03/03/21 17:39,5343802,0.775,0.002,1283,22.1,25.3,76,10.0
2021-03-03T22:40:55Z,03/03/21 17:40,5343809,0.8800000000000001,0.002,1276,22.1,25.3,76,11.0
2021-03-03T22:41:55Z,03/03/21 17:41,5343817,0.843,0.006,1285,22.1,25.3,76,11.0
2021-03-03T22:42:55Z,03/03/21 17:42,5343825,0.8099999999999999,0.0,1280,22.1,25.3,76,11.0
2021-03-03T22:43:55Z,03/03/21 17:43,5343832,0.852,0.0,1285,22.1,25.3,76,10.0
2021-03-03T22:44:55Z,03/03/21 17:44,5343839,0.8640000000000001,0.006,1278,22.1,25.4,76,11.0
2021-03-03T22:45:55Z,03/03/21 17:45,5343846,0.756,0.0,1280,22.1,25.4,76,9.0
2021-03-03T22:46:55Z,03/03/21 17:46,5343854,0.915,0.006,1280,22.1,25.4,76,10.0
2021-03-03T22:47:55Z,03/03/21 17:47,5343862,0.9,0.006,1280,22.1,25.3,76,11.0
2021-03-03T22:48:55Z,03/03/21 17:48,5343868,0.891,0.0,1264,22.1,25.3,76,10.0
2021-03-03T22:49:55Z,03/03/21 17:49,5343875,1.028,0.004,1273,22.1,25.3,76,11.0
2021-03-03T22:50:55Z,03/03/21 17:50,5343883,0.759,0.0,1276,22.1,25.3,76,9.0
2021-03-03T22:51:55Z,03/03/21 17:51,5343889,0.8,0.004,1281,22.1,25.4,76,11.0
2021-03-03T22:52:55Z,03/03/21 17:52,5343897,0.796,0.002,1301,22.1,25.4,76,11.0
2021-03-03T22:53:55Z,03/03/21 17:53,5343904,0.7929999999999999,0.002,1305,22.1,25.4,76,9.0
2021-03-03T22:54:55Z,03/03/21 17:54,5343911,0.959,0.004,1301,22.1,25.4,76,9.0
2021-03-03T22:55:55Z,03/03/21 17:55,5343922,0.7190000000000001,0.004,1299,22.1,25.4,76,10.0
2021-03-03T22:56:55Z,03/03/21 17:56,5343927,0.8960000000000001,0.004,1289,22.1,25.4,76,11.0
2021-03-03T22:58:17Z,03/03/21 17:58,5343935,0.9730000000000001,0.002,1305,22.1,25.4,76,10.0
2021-03-03T22:59:17Z,03/03/21 17:59,5343942,0.844,0.002,1295,22.1,25.4,76,10.0
2021-03-03T23:00:17Z,03/03/21 18:00,5343949,0.693,0.0,1287,22.1,25.4,76,11.0
2021-03-03T23:01:17Z,03/03/21 18:01,5343956,0.79,0.002,1287,22.1,25.3,76,12.0
2021-03-03T23:02:17Z,03/03/21 18:02,5343963,0.769,0.008,1270,22.1,25.3,76,12.0
2021-03-03T23:03:17Z,03/03/21 18:03,5343970,0.7809999999999999,0.002,1276,22.1,25.3,76,11.0
2021-03-03T23:04:17Z,03/03/21 18:04,5343979,0.849,0.0,1256,22.1,25.2,76,11.0
2021-03-03T23:05:17Z,03/03/21 18:05,5343986,0.8960000000000001,0.004,1260,22.1,25.2,76,12.0
2021-03-03T23:06:17Z,03/03/21 18:06,5343994,0.8140000000000001,0.002,1260,22.1,25.2,76,12.0
2021-03-03T23:07:17Z,03/03/21 18:07,5344004,0.99,0.006,1266,22.1,25.2,76,12.0
2021-03-03T23:08:17Z,03/03/21 18:08,5344010,0.8119999999999999,0.004,1246,22.1,25.2,76,12.0
2021-03-03T23:09:17Z,03/03/21 18:09,5344018,0.915,0.006,1240,22.1,25.2,76,12.0
2021-03-03T23:10:17Z,03/03/21 18:10,5344027,0.7929999999999999,0.002,1246,22.1,25.2,76,12.0
2021-03-03T23:11:17Z,03/03/21 18:11,5344034,0.844,0.002,1238,22.1,25.2,76,12.0
2021-03-03T23:12:45Z,03/03/21 18:12,5344044,0.808,0.002,1238,22.1,25.2,76,11.0
2021-03-03T23:13:45Z,03/03/21 18:13,5344053,0.722,0.004,1242,22.1,25.2,76,10.0
2021-03-03T23:14:45Z,03/03/21 18:14,5344060,0.7,0.002,1246,22.2,25.2,76,11.0
2021-03-03T23:15:45Z,03/03/21 18:15,5344072,0.8039999999999999,0.0,1247,22.2,25.2,76,10.0
2021-03-03T23:16:45Z,03/03/21 18:16,5344077,0.873,0.006,1237,22.3,25.2,76,11.0
2021-03-03T23:18:00Z,03/03/21 18:18,5344085,0.875,0.004,1235,22.3,25.2,76,11.0
2021-03-03T23:19:00Z,03/03/21 18:19,5344091,0.7110000000000001,0.0,1252,22.4,25.2,76,9.0
2021-03-03T23:20:00Z,03/03/21 18:20,5344097,0.8099999999999999,0.0,1248,22.4,25.2,76,9.0
2021-03-03T23:21:00Z,03/03/21 18:21,5344107,0.8220000000000001,0.006,1248,22.4,25.1,76,11.0
2021-03-03T23:22:00Z,03/03/21 18:22,5344111,0.79,0.002,1251,22.5,25.1,76,9.0
2021-03-03T23:23:00Z,03/03/21 18:23,5344119,0.735,0.006,1235,22.5,25.0,76,10.0
2021-03-03T23:24:00Z,03/03/21 18:24,5344127,0.868,0.002,1235,22.5,25.0,76,11.0
2021-03-03T23:25:00Z,03/03/21 18:25,5344135,0.6759999999999999,0.002,1239,22.5,24.9,76,11.0
2021-03-03T23:26:00Z,03/03/21 18:26,5344142,0.786,0.0,1241,22.5,24.9,76,10.0
2021-03-03T23:27:00Z,03/03/21 18:27,5344150,0.958,0.002,1225,22.5,24.9,76,10.0
2021-03-03T23:28:00Z,03/03/21 18:28,5344157,0.762,0.0,1244,22.5,24.9,76,11.0
2021-03-03T23:29:32Z,03/03/21 18:29,5344164,0.798,0.0,1232,22.5,24.8,76,11.0
2021-03-03T23:30:32Z,03/03/21 18:30,5344172,0.713,0.01,1228,22.5,24.8,76,11.0
2021-03-03T23:32:52Z,03/03/21 18:32,5344186,0.859,0.002,1242,22.5,24.9,76,9.0
2021-03-03T23:33:52Z,03/03/21 18:33,5344192,0.8320000000000001,0.002,1252,22.6,24.9,76,10.0
2021-03-03T23:34:52Z,03/03/21 18:34,5344199,0.771,0.006,1248,22.6,24.8,76,11.0
2021-03-03T23:35:52Z,03/03/21 18:35,5344207,0.6759999999999999,0.002,1250,22.6,24.7,76,12.0
2021-03-03T23:36:52Z,03/03/21 18:36,5344214,0.726,0.0,1250,22.6,24.7,76,10.0
2021-03-03T23:37:52Z,03/03/21 18:37,5344236,0.8619999999999999,0.002,1238,22.6,24.7,76,11.0
2021-03-03T23:38:52Z,03/03/21 18:38,5344235,0.844,0.008,1224,22.6,24.7,76,11.0
2021-03-03T23:41:15Z,03/03/21 18:41,5344248,0.8130000000000001,0.0,1249,22.6,24.9,76,10.0
2021-03-03T23:42:15Z,03/03/21 18:42,5344253,0.752,0.004,1245,22.6,24.8,76,9.0
2021-03-03T23:43:15Z,03/03/21 18:43,5344260,0.8240000000000001,0.004,1235,22.6,24.7,76,11.0
2021-03-03T23:44:15Z,03/03/21 18:44,5344271,0.874,0.002,1241,22.6,24.7,76,11.0
2021-03-03T23:45:15Z,03/03/21 18:45,5344273,0.877,0.002,1257,22.6,24.7,76,11.0
2021-03-03T23:46:15Z,03/03/21 18:46,5344282,0.8109999999999999,0.002,1243,22.6,24.6,76,11.0
2021-03-03T23:50:53Z,03/03/21 18:50,5344311,0.646,0.002,1229,22.7,24.6,76,10.0
2021-03-03T23:51:53Z,03/03/21 18:51,5344317,0.7969999999999999,0.004,1245,22.7,24.6,76,11.0
2021-03-03T23:52:53Z,03/03/21 18:52,5344325,0.76,0.002,1243,22.7,24.6,76,11.0
2021-03-03T23:53:53Z,03/03/21 18:53,5344332,0.808,0.002,1239,22.7,24.6,76,10.0
2021-03-03T23:54:53Z,03/03/21 18:54,5344339,0.766,0.002,1248,22.7,24.6,76,11.0
2021-03-03T23:55:53Z,03/03/21 18:55,5344352,0.671,0.004,1246,22.7,24.6,76,11.0
2021-03-03T23:56:53Z,03/03/21 18:56,5344353,0.8230000000000001,0.002,1238,22.7,24.6,76,12.0
2021-03-03T23:58:12Z,03/03/21 18:58,5344361,0.7230000000000001,0.0,1246,22.7,24.6,76,11.0
2021-03-03T23:59:12Z,03/03/21 18:59,5344368,0.705,0.0,1246,22.7,24.6,76,11.0
2021-03-04T00:00:12Z,03/03/21 19:00,5344375,0.861,0.0,1244,22.7,24.6,76,12.0
2021-03-04T00:01:12Z,03/03/21 19:01,5344382,0.883,0.002,1246,22.7,24.5,76,12.0
2021-03-04T00:02:12Z,03/03/21 19:02,5344389,0.733,0.002,1244,22.7,24.4,76,13.0
2021-03-04T00:03:12Z,03/03/21 19:03,5344396,0.741,0.006,1234,22.7,24.4,76,12.0
2021-03-04T00:04:12Z,03/03/21 19:04,5344403,0.736,0.002,1236,22.7,24.4,76,13.0
2021-03-04T00:05:12Z,03/03/21 19:05,5344416,0.8800000000000001,0.002,1224,22.7,24.4,76,13.0
2021-03-04T00:06:12Z,03/03/21 19:06,5344417,0.674,0.004,1236,22.7,24.4,76,12.0
2021-03-04T00:07:30Z,03/03/21 19:07,5344430,0.6769999999999999,0.004,1250,22.7,24.4,76,12.0
2021-03-04T00:08:30Z,03/03/21 19:08,5344437,0.806,0.004,1260,22.7,24.4,76,11.0
2021-03-04T00:09:30Z,03/03/21 19:09,5344445,0.657,0.0,1256,22.7,24.4,76,12.0
2021-03-04T00:10:30Z,03/03/21 19:10,5344452,0.6759999999999999,0.002,1264,22.7,24.4,76,11.0
2021-03-04T00:11:30Z,03/03/21 19:11,5344461,0.726,0.0,1253,22.7,24.4,76,12.0
2021-03-04T00:12:30Z,03/03/21 19:12,5344469,0.917,0.004,1241,22.7,24.4,76,12.0
2021-03-04T00:13:30Z,03/03/21 19:13,5344478,0.8949999999999999,0.002,1247,22.7,24.6,76,9.0
2021-03-04T00:14:30Z,03/03/21 19:14,5344486,0.6519999999999999,0.008,1247,22.7,24.6,76,11.0
2021-03-04T00:15:30Z,03/03/21 19:15,5344491,0.776,0.004,1247,22.7,24.6,76,10.0
2021-03-04T00:16:30Z,03/03/21 19:16,5344499,0.663,0.006,1258,22.7,24.6,76,11.0
2021-03-04T00:17:30Z,03/03/21 19:17,5344510,0.766,0.008,1236,22.7,24.5,76,11.0
2021-03-04T00:18:30Z,03/03/21 19:18,5344515,0.916,0.002,1236,22.7,24.4,76,11.0
2021-03-04T00:19:30Z,03/03/21 19:19,5344523,0.858,0.006,1258,22.7,24.4,76,11.0
2021-03-04T00:20:30Z,03/03/21 19:20,5344532,0.9410000000000001,0.004,1244,22.7,24.4,76,11.0
2021-03-04T00:21:30Z,03/03/21 19:21,5344539,0.693,0.0,1254,22.7,24.6,76,11.0
2021-03-04T00:22:30Z,03/03/21 19:22,5344546,0.773,0.004,1266,22.7,24.6,76,10.0
2021-03-04T00:23:30Z,03/03/21 19:23,5344557,0.762,0.0,1270,22.7,24.6,76,11.0
2021-03-04T00:24:30Z,03/03/21 19:24,5344562,0.787,0.002,1280,22.8,24.7,76,10.0
2021-03-04T00:25:30Z,03/03/21 19:25,5344570,0.6519999999999999,0.002,1286,22.7,24.7,76,11.0
2021-03-04T00:26:30Z,03/03/21 19:26,5344578,0.748,0.002,1278,22.7,24.8,76,11.0
2021-03-04T00:27:30Z,03/03/21 19:27,5344586,0.908,0.004,1284,22.7,24.8,76,11.0
2021-03-04T00:28:30Z,03/03/21 19:28,5344596,0.74,0.004,1291,22.7,24.8,76,10.0
2021-03-04T00:29:30Z,03/03/21 19:29,5344602,0.75,0.006,1262,22.7,24.7,76,11.0
2021-03-04T00:30:49Z,03/03/21 19:30,5344613,0.857,0.004,1276,22.7,24.7,76,11.0
2021-03-04T00:31:49Z,03/03/21 19:31,5344620,0.8800000000000001,0.002,1280,22.7,24.7,76,10.0
2021-03-04T00:32:49Z,03/03/21 19:32,5344628,0.795,0.006,1278,22.7,24.7,76,11.0
2021-03-04T00:33:49Z,03/03/21 19:33,5344636,0.751,0.002,1268,22.7,24.6,76,11.0
2021-03-04T00:34:49Z,03/03/21 19:34,5344643,0.8109999999999999,0.002,1252,22.7,24.6,76,11.0
2021-03-04T00:35:49Z,03/03/21 19:35,5344656,0.9039999999999999,0.002,1248,22.7,24.6,76,11.0
2021-03-04T00:36:49Z,03/03/21 19:36,5344657,0.8859999999999999,0.002,1228,22.7,24.6,76,12.0
2021-03-04T00:38:07Z,03/03/21 19:38,5344670,0.913,0.002,1245,22.7,24.6,76,12.0
2021-03-04T00:39:07Z,03/03/21 19:39,5344675,0.868,0.002,1251,22.7,24.6,76,11.0
2021-03-04T00:40:07Z,03/03/21 19:40,5344687,0.874,0.002,1282,22.7,24.6,76,12.0
2021-03-04T00:41:07Z,03/03/21 19:41,5344701,0.806,0.004,1271,22.6,24.6,76,11.0
2021-03-04T00:43:48Z,03/03/21 19:43,5344711,0.79,0.008,1273,22.7,24.6,76,10.0
2021-03-04T00:44:48Z,03/03/21 19:44,5344719,0.891,0.0,1262,22.7,24.7,76,10.0
2021-03-04T00:45:48Z,03/03/21 19:45,5344726,0.852,0.006,1262,22.7,24.6,76,10.0
2021-03-04T00:46:48Z,03/03/21 19:46,5344732,0.784,0.002,1253,22.7,24.6,76,11.0
2021-03-04T00:47:48Z,03/03/21 19:47,5344742,0.74,0.004,1243,22.7,24.6,76,11.0
2021-03-04T00:48:48Z,03/03/21 19:48,5344748,0.763,0.002,1251,22.7,24.6,76,12.0
2021-03-04T00:49:49Z,03/03/21 19:49,5344756,0.891,0.006,1258,22.7,24.6,76,12.0
2021-03-04T00:50:49Z,03/03/21 19:50,5344763,0.89,0.004,1252,22.7,24.6,76,12.0
2021-03-04T00:51:49Z,03/03/21 19:51,5344774,0.8039999999999999,0.0,1240,22.7,24.5,76,12.0
2021-03-04T00:52:49Z,03/03/21 19:52,5344777,0.835,0.008,1238,22.7,24.4,76,12.0
2021-03-04T00:53:49Z,03/03/21 19:53,5344785,0.787,0.002,1232,22.7,24.4,76,11.0
2021-03-04T00:54:48Z,03/03/21 19:54,5344797,1.0470000000000002,0.0,1228,22.7,24.4,76,12.0
2021-03-04T00:55:48Z,03/03/21 19:55,5344801,0.744,0.0,1236,22.7,24.4,76,12.0
2021-03-04T00:56:48Z,03/03/21 19:56,5344807,0.673,0.002,1226,22.7,24.4,76,11.0
2021-03-04T00:57:48Z,03/03/21 19:57,5344814,0.844,0.002,1230,22.8,24.5,76,11.0
2021-03-04T00:58:48Z,03/03/21 19:58,5344821,0.618,0.0,1230,22.8,24.4,76,11.0
2021-03-04T00:59:48Z,03/03/21 19:59,5344829,0.8300000000000001,0.004,1228,22.8,24.4,76,10.0
2021-03-04T01:00:48Z,03/03/21 20:00,5344834,0.662,0.004,1224,22.8,24.4,76,11.0
2021-03-04T01:02:16Z,03/03/21 20:02,5344844,0.798,0.0,1221,22.8,24.4,76,10.0
2021-03-04T01:03:16Z,03/03/21 20:03,5344850,0.648,0.0,1225,22.9,24.4,76,11.0
2021-03-04T01:04:16Z,03/03/21 20:04,5344857,0.642,0.006,1229,22.9,24.4,76,12.0
2021-03-04T01:05:16Z,03/03/21 20:05,5344864,0.817,0.002,1235,22.9,24.3,76,12.0
2021-03-04T01:06:16Z,03/03/21 20:06,5344876,0.9960000000000001,0.0,1225,22.9,24.2,76,11.0
2021-03-04T01:07:16Z,03/03/21 20:07,5344881,0.9109999999999999,0.004,1237,22.9,24.3,76,10.0
2021-03-04T01:11:01Z,03/03/21 20:11,5344906,0.818,0.004,1223,22.9,24.2,76,11.0
2021-03-04T01:12:01Z,03/03/21 20:12,5344912,0.754,0.002,1225,22.9,24.1,76,11.0
2021-03-04T01:13:34Z,03/03/21 20:13,5344924,0.722,0.004,1215,22.9,24.1,76,12.0
2021-03-04T01:14:34Z,03/03/21 20:14,5344932,0.8310000000000001,0.0,1221,22.9,24.2,76,11.0
2021-03-04T01:15:34Z,03/03/21 20:15,5344936,0.609,0.0,1223,22.9,24.3,76,10.0
2021-03-04T01:16:34Z,03/03/21 20:16,5344944,0.731,0.004,1223,22.9,24.3,76,10.0
2021-03-04T01:17:34Z,03/03/21 20:17,5344950,0.713,0.004,1247,23.0,24.4,76,9.0
2021-03-04T01:18:34Z,03/03/21 20:18,5344958,0.634,0.002,1228,23.0,24.4,76,9.0
2021-03-04T01:19:34Z,03/03/21 20:19,5344965,0.727,0.002,1246,23.1,24.4,76,9.0
2021-03-04T01:21:11Z,03/03/21 20:21,5344977,0.7110000000000001,0.0,1222,23.1,24.4,76,10.0
2021-03-04T01:22:11Z,03/03/21 20:22,5344983,0.7969999999999999,0.004,1226,23.1,24.3,76,10.0
2021-03-04T01:24:05Z,03/03/21 20:24,5344998,0.771,0.0,1221,23.1,24.2,76,12.0
2021-03-04T01:25:05Z,03/03/21 20:25,5345005,0.769,0.002,1235,23.1,24.2,76,10.0
2021-03-04T01:26:05Z,03/03/21 20:26,5345014,0.8039999999999999,0.0,1215,23.1,24.1,76,12.0
2021-03-04T01:27:05Z,03/03/21 20:27,5345019,0.739,0.002,1217,23.1,24.1,76,10.0
2021-03-04T01:29:05Z,03/03/21 20:29,5345036,0.7769999999999999,0.006,1215,23.1,24.0,76,11.0
2021-03-04T01:30:27Z,03/03/21 20:30,5345046,0.924,0.0,1205,23.1,23.8,76,12.0
2021-03-04T01:31:27Z,03/03/21 20:31,5345053,0.892,0.002,1197,23.0,23.8,76,12.0
2021-03-04T01:32:27Z,03/03/21 20:32,5345063,0.8460000000000001,0.006,1187,23.0,23.7,76,11.0
2021-03-04T01:33:27Z,03/03/21 20:33,5345069,0.7929999999999999,0.002,1175,23.0,23.7,76,12.0
2021-03-04T01:35:11Z,03/03/21 20:35,5345084,0.9710000000000001,0.004,1191,22.9,23.8,76,12.0
2021-03-04T01:36:11Z,03/03/21 20:36,5345093,0.9380000000000001,0.004,1209,22.9,23.8,76,13.0
2021-03-04T01:37:34Z,03/03/21 20:37,5345102,0.825,0.006,1202,22.9,23.7,76,14.0
2021-03-04T01:38:34Z,03/03/21 20:38,5345113,0.861,0.0,1200,22.9,23.7,76,13.0
2021-03-04T01:40:32Z,03/03/21 20:40,5345120,0.693,0.0,1200,22.8,23.7,76,13.0
2021-03-04T01:41:32Z,03/03/21 20:41,5345134,0.8390000000000001,0.004,1186,22.8,23.7,76,13.0
2021-03-04T01:42:32Z,03/03/21 20:42,5345136,0.638,0.004,1182,22.8,23.7,76,12.0